Regional Weather Roundup
Issued by NWS

Home | Current Version | Previous Version | Text Only | Print | Product List | Glossary Off
Versions: 1 2 3 4 5 6 7 8 9 10 11 12 13 14 15 16 17 18 19 20 21 22 23 24 25 26 27 28

000
ASUS45 KBOU 191110
RWRCO

WEATHER ROUNDUP FOR COLORADO
NATIONAL WEATHER SERVICE DENVER/BOULDER CO
400 AM MST SUN NOV 19 2017

NOTE: "FAIR" INDICATES FEW OR NO CLOUDS BELOW 12000 FEET WITH NO
SIGNIFICANT WEATHER AND/OR OBSTRUCTIONS TO VISIBILITY.

COZ001>005-013-030-031-191200-
...NORTHWEST COLORADO...

CITY           SKY/WX    TMP DP  RH WIND       PRES   REMARKS
CRAIG          FAIR      10   5  80 W3        30.34F
HAYDEN         FAIR      15   9  76 E15       30.35F WCI   0
MEEKER         FAIR      14   8  77 MISG      30.34F
RABBIT EARS PA FAIR      14   9  79 SW7       30.28F WCI   4
STEAMBOAT SPGS FAIR       9   7  90 CALM      30.35F
WALDEN         FAIR       9   1  72 SE8       30.30S WCI  -4
$$

COZ006>008-011-191200-
...WEST CENTRAL VALLEYS...

CITY           SKY/WX    TMP DP  RH WIND       PRES   REMARKS
GRAND JUNCTION FAIR      20  15  81 E5        30.37F WCI  13
MONTROSE       FAIR      19  15  84 SE8       30.40F WCI   9
EAGLE          FAIR      13   9  84 CALM      30.42F
RIFLE          FAIR      18  14  84 CALM      30.40F
DELTA          FAIR      20  14  77 NE5       30.39F WCI  14
NUCLA          FAIR      21  12  68 E3        30.40F
$$

COZ017>023-064>068-191200-
...SOUTHWEST COLORADO...

CITY           SKY/WX    TMP DP  RH WIND       PRES   REMARKS
DURANGO        FAIR      11   8  88 CALM      30.33F
CORTEZ         FAIR      11   6  81 E5        30.35F WCI   3
PAGOSA SPRINGS FAIR      19  13  80 CALM      30.33F
TELLURIDE      FAIR      22   5  48 SE7       30.35F WCI  13
WOLF CREEK PAS FAIR      23 -11  21 SW6       30.42S WCI  16
$$

COZ009-010-012-014-032>034-037-058>063-191200-
...CENTRAL COLORADO...

CITY           SKY/WX    TMP DP  RH WIND       PRES   REMARKS
ASPEN          FAIR      10   5  80 S6        30.33F WCI   0
BUENA VISTA    FAIR      17   9  72 NW7       30.31F WCI   7
COPPER MTN     FAIR      23  -2  33 MISG      30.32S
BERTHOUD PASS  FAIR      14   3  62 NW39G48   30.22F WCI  -9
COTTONWOOD PAS FAIR      32   0  25 N6        30.29F WCI  26
GUNNISON       FAIR       8   4  83 NE3       30.43F
KREMMLING      FAIR      14  10  85 CALM      30.39F
LEADVILLE      FAIR      10   2  69 NE8       30.29F WCI  -2
MONARCH PASS   FAIR      16  -8  35 W31       30.41F WCI  -5
SALIDA         FAIR      25  10  52 N16G23    30.37F WCI  13
SUNLIGHT       FAIR      18   1  49 SW13G18   30.36F WCI   4
WILKERSON PASS FAIR      21  -6  30 W6        30.33S WCI  14
$$

COZ069>075-191200-
...SAN LUIS VALLEY/SANGRE DE CRISTO MOUNTAINS...

CITY           SKY/WX    TMP DP  RH WIND       PRES   REMARKS
ALAMOSA        FAIR       5   1  83 CALM      30.35F
DEL NORTE      FAIR      20   6  54 W14       30.35F WCI   7
LA VETA PASS   FAIR      21   5  49 SW26        N/A  WCI   4
SAGUACHE       FAIR      18   3  53 NW12      30.35F WCI   5
$$

COZ035-036-038>040-191200-
...NORTHERN COLORADO FRONT RANGE...

CITY           SKY/WX    TMP DP  RH WIND       PRES   REMARKS
DENVER INTL AP FAIR      26  14  60 S3        30.16F
DMNS CITY PARK   N/A     28  17  63 E9        30.17F WCI  19
AURORA         PTCLDY    32  12  44 S12       30.17F WCI  23
FRONT RANGE AP FAIR      27  19  71 S8        30.17F WCI  19
ERIE MUNI ARPT FAIR      19  16  88 SW3       30.22F
BOULDER MUN AP FAIR      28  19  69 CALM      30.16F
CENTENNIAL     FAIR      28  15  58 E8        30.17F WCI  20
BROOMFIELD     FAIR      28  19  69 CALM      30.17F
FORT COLLINS   FAIR      24  18  77 NE3       30.18F
LONGMONT       FAIR      22  17  80 CALM      30.19F
$$

COZ041-046-047-076>085-087-088-191200-
...PIKES PEAK/PALMER DIVIDE AND SOUTHERN FOOTHILLS...

CITY           SKY/WX    TMP DP  RH WIND       PRES   REMARKS
COLO. SPRINGS  FAIR      27  13  55 N6        30.21F WCI  20
A. F. ACADEMY  FAIR      31   9  39 NE3       30.19F
SCHRIEVER AFB  FAIR      24  12  60 W3        30.20F
CHEYENNE MTN   FAIR      36   6  27 CALM      30.15F
ELLICOTT       NOT AVBL
FALCON         FAIR      29  10  44 CALM      30.21S
FORT CARSON    FAIR      25  16  69 N5        30.18F WCI  19
LIMON          FAIR      10   9  95 N3        30.20F
MONUMENT HILL  FAIR      32   9  37 SW12      30.21F WCI  23
CANON CITY     FAIR      37  10  32 W13       30.19S
WALSENBURG     FAIR      36   9  32 SW6       30.21R
TRINIDAD       FAIR      28  16  60 W7        30.22S WCI  21
$$

COZ042>045-048>051-090-091-191200-
...NORTHEAST COLORADO...

CITY           SKY/WX    TMP DP  RH WIND       PRES   REMARKS
GREELEY ARPT   FAIR      19  14  81 NW3       30.19F
AKRON          FAIR      26  17  68 W13       30.16F WCI  15
BURLINGTON     FAIR      18  12  77 SW10      30.20F WCI   6
WRAY           NOT AVBL
YUMA           FAIR      19  16  86 SW8       30.18F WCI   9
STERLING       FAIR      18  14  86 CALM      30.18F
HOLYOKE        FAIR      21  14  73 W7        30.19S WCI  13
FORT MORGAN    FAIR      18  13  83 W9        30.18S WCI   6
$$

COZ086-089-092>099-191200-
...SOUTHEAST COLORADO...

CITY           SKY/WX    TMP DP  RH WIND       PRES   REMARKS
PUEBLO         FAIR      20  16  84 CALM      30.21F
LA JUNTA       FAIR      22  18  85 W9        30.22F WCI  12
LAMAR          FAIR      13   9  84 SW8       30.21F WCI   2
SPRINGFIELD      N/A     20  14  77 W6        30.21F WCI  12
$$




USA.gov is the U.S. government's official web portal to all federal, state and local government web resources and services.